Crane Lake, MN

11:14 PM CDT on July 22, 2017 (GMT -0500)
Crane Lake

Weather History for KCDD - November, 2012

Change the Weather History Date:

Friday, November 30, 2012

  Actual Average Record
Temperature  
Mean Temperature 19 °F -  
Max Temperature 28 °F 27 °F 42 °F (1999)
Min Temperature 10 °F 13 °F -11 °F (2007)
Degree Days  
Heating Degree Days 46    
Moisture  
Dew Point 19 °F    
Average Humidity 90    
Maximum Humidity 100    
Minimum Humidity 80    
Precipitation  
Precipitation 0.01 in - - ()
Sea Level Pressure  
Sea Level Pressure 30.18 in    
Wind  
Wind Speed 1 mph (SE)    
Max Wind Speed 6 mph    
Max Gust Speed -    
Visibility 8 miles    
Events Snow    
Averages and records for this station are not official NWS values.
T = Trace of Precipitation, MM = Missing Value Source: NWS Daily Summary

Daily Weather History Graph

Daily Weather History Graph

Search for Another Location

Airport or City:

Trip Planner

Search our weather history database for the weather conditions in past years. The results will help you decide how hot, cold, wet, or windy it might be!

Date:

Astronomy

Nov. 30, 2012 Rise Set
Actual Time 7:39 AM CST 4:18 PM CST
Civil Twilight 7:03 AM CST 4:53 PM CST
Nautical Twilight 6:24 AM CST 5:33 PM CST
Astronomical Twilight 5:46 AM CST 6:10 PM CST
Moon 6:14 PM CST (11/30) 9:10 AM CST (11/30)
Length of Visible Light 9h 50m
Length of Day
8h 39m
Waning Gibbous, 96% of the Moon is Illuminated
Nov 30
Waning Gibbous
Dec 6
Last Quarter
Dec 13
New
Dec 19
First Quarter
Dec 28
Full

Hourly Weather History & Observations

Time (CST) Temp. Windchill Dew Point Humidity Pressure Visibility Wind Dir Wind Speed Gust Speed Precip Events Conditions
12:05 AM 12.2 °F - 8.6 °F 85% 30.31 in 4.0 mi Calm Calm - N/A Snow Light Snow
12:25 AM 12.2 °F - 8.6 °F 85% 30.31 in 2.5 mi Calm Calm - N/A Snow Light Snow
12:45 AM 12.2 °F 4.3 °F 8.6 °F 85% 30.31 in 1.8 mi NE 4.6 mph - N/A Snow Light Snow
1:05 AM 12.2 °F - 8.6 °F 85% 30.30 in 1.8 mi Calm Calm - N/A Snow Light Snow
1:25 AM 12.2 °F - 10.4 °F 92% 30.30 in 2.5 mi Calm Calm - N/A Snow Light Snow
1:45 AM 12.2 °F - 10.4 °F 92% 30.30 in 3.0 mi Calm Calm - N/A Snow Light Snow
2:05 AM 12.2 °F 6.1 °F 10.4 °F 92% 30.29 in 3.0 mi NE 3.5 mph - N/A Snow Light Snow
2:25 AM 12.2 °F - 10.4 °F 92% 30.29 in 5.0 mi Calm Calm - N/A Snow Light Snow
2:45 AM 12.2 °F - 10.4 °F 92% 30.28 in 3.0 mi Calm Calm - 0.01 in Snow Light Snow
3:05 AM 12.2 °F - 10.4 °F 92% 30.27 in 2.5 mi Calm Calm - N/A Snow Light Snow
3:25 AM 12.2 °F - 10.4 °F 92% 30.26 in 4.0 mi Calm Calm - N/A Snow Light Snow
3:45 AM 12.2 °F - 8.6 °F 85% 30.26 in 7.0 mi Calm Calm - N/A Snow Light Snow
4:05 AM 10.4 °F - 8.6 °F 92% 30.25 in 10.0 mi Calm Calm - N/A   Clear
4:25 AM 10.4 °F - 8.6 °F 92% 30.26 in 10.0 mi Calm Calm - N/A   Scattered Clouds
4:45 AM 12.2 °F - 8.6 °F 85% 30.27 in 10.0 mi Calm Calm - N/A   Mostly Cloudy
5:05 AM 12.2 °F - 10.4 °F 92% 30.26 in 10.0 mi Calm Calm - N/A   Overcast
5:45 AM 12.2 °F - 10.4 °F 92% 30.25 in 10.0 mi Calm Calm - N/A   Overcast
6:05 AM 12.2 °F - 10.4 °F 92% 30.25 in 10.0 mi Calm Calm - N/A   Overcast
6:25 AM 14.0 °F - 12.2 °F 93% 30.25 in 10.0 mi Calm Calm - N/A   Overcast
6:45 AM 14.0 °F - 12.2 °F 93% 30.25 in 10.0 mi Calm Calm - N/A   Overcast
7:05 AM 14.0 °F - 12.2 °F 93% 30.26 in 10.0 mi Calm Calm - N/A   Overcast
7:25 AM 15.8 °F - 12.2 °F 86% 30.26 in 10.0 mi Calm Calm - N/A   Overcast
7:45 AM 15.8 °F - 12.2 °F 86% 30.26 in 10.0 mi Calm Calm - N/A   Overcast
8:05 AM 15.8 °F - 14.0 °F 93% 30.25 in 10.0 mi Calm Calm - N/A   Overcast
8:25 AM 17.6 °F - 14.0 °F 86% 30.24 in 10.0 mi Calm Calm - N/A   Overcast
8:45 AM 17.6 °F - 15.8 °F 93% 30.24 in 10.0 mi Calm Calm - N/A   Overcast
9:05 AM 19.4 °F - 15.8 °F 86% 30.24 in 10.0 mi Calm Calm - N/A   Overcast
9:25 AM 19.4 °F - 17.6 °F 93% 30.24 in 10.0 mi Calm Calm - N/A   Overcast
9:45 AM 21.2 °F - 17.6 °F 86% 30.25 in 10.0 mi Calm Calm - N/A   Overcast
10:05 AM 21.2 °F - 19.4 °F 93% 30.24 in 10.0 mi Calm Calm - N/A   Overcast
10:25 AM 21.2 °F - 19.4 °F 93% 30.24 in 10.0 mi Calm Calm - N/A   Overcast
10:45 AM 23.0 °F - 21.2 °F 93% 30.23 in 10.0 mi Calm Calm - N/A   Overcast
11:05 AM 24.8 °F - 21.2 °F 86% 30.22 in 10.0 mi Calm Calm - N/A   Overcast
11:25 AM 24.8 °F - 21.2 °F 86% 30.21 in 10.0 mi Calm Calm - N/A   Overcast
11:45 AM 24.8 °F - 21.2 °F 86% 30.20 in 10.0 mi Calm Calm - N/A   Overcast
12:05 PM 24.8 °F - 21.2 °F 86% 30.17 in 10.0 mi Calm Calm - N/A   Overcast
12:25 PM 24.8 °F - 21.2 °F 86% 30.19 in 10.0 mi Calm Calm - N/A   Overcast
12:45 PM 26.6 °F - 21.2 °F 80% 30.18 in 10.0 mi Calm Calm - N/A   Overcast
1:05 PM 26.6 °F - 23.0 °F 86% 30.16 in 10.0 mi Calm Calm - N/A   Overcast
1:25 PM 26.6 °F 22.6 °F 24.8 °F 93% 30.16 in 10.0 mi SSE 3.5 mph - N/A   Overcast
1:45 PM 28.4 °F 24.6 °F 24.8 °F 86% 30.15 in 10.0 mi SE 3.5 mph - N/A   Overcast
2:05 PM 28.4 °F - 24.8 °F 86% 30.14 in 10.0 mi Calm Calm - N/A   Overcast
2:25 PM 28.4 °F 24.6 °F 24.8 °F 86% 30.14 in 10.0 mi SE 3.5 mph - N/A   Overcast
2:45 PM 28.4 °F 24.6 °F 24.8 °F 86% 30.15 in 10.0 mi SE 3.5 mph - N/A   Overcast
3:05 PM 28.4 °F - 24.8 °F 86% 30.16 in 10.0 mi Calm Calm - N/A   Overcast
3:25 PM 28.4 °F 24.6 °F 24.8 °F 86% 30.15 in 10.0 mi SSE 3.5 mph - N/A   Overcast
3:45 PM 28.4 °F - 24.8 °F 86% 30.16 in 10.0 mi Calm Calm - N/A   Overcast
4:05 PM 26.6 °F 22.6 °F 24.8 °F 93% 30.15 in 10.0 mi SE 3.5 mph - N/A   Overcast
4:25 PM 26.6 °F 22.6 °F 24.8 °F 93% 30.13 in 10.0 mi SE 3.5 mph - N/A   Overcast
4:45 PM 26.6 °F 20.0 °F 24.8 °F 93% 30.12 in 10.0 mi SE 5.8 mph - N/A   Overcast
5:05 PM 26.6 °F 22.6 °F 24.8 °F 93% 30.12 in 10.0 mi SSE 3.5 mph - N/A   Overcast
5:25 PM 26.6 °F 22.6 °F 24.8 °F 93% 30.10 in 10.0 mi ESE 3.5 mph - N/A   Overcast
6:05 PM 26.6 °F 22.6 °F 24.8 °F 93% 30.10 in 10.0 mi SE 3.5 mph - N/A   Overcast
6:25 PM 26.6 °F 21.2 °F 24.8 °F 93% 30.10 in 10.0 mi SSE 4.6 mph - N/A   Overcast
6:45 PM 26.6 °F - 24.8 °F 93% 30.10 in 10.0 mi Calm Calm - N/A   Overcast
7:05 PM 26.6 °F 22.6 °F 24.8 °F 93% 30.09 in 10.0 mi SE 3.5 mph - N/A   Overcast
7:25 PM 26.6 °F 22.6 °F 24.8 °F 93% 30.09 in 10.0 mi SE 3.5 mph - N/A   Overcast
7:45 PM 26.6 °F 22.6 °F 24.8 °F 93% 30.08 in 10.0 mi SE 3.5 mph - N/A   Overcast
8:05 PM 26.6 °F 21.2 °F 24.8 °F 93% 30.08 in 10.0 mi SSE 4.6 mph - N/A   Overcast
8:25 PM 26.6 °F 22.6 °F 24.8 °F 93% 30.06 in 10.0 mi SE 3.5 mph - N/A   Overcast
8:45 PM 26.6 °F 22.6 °F 24.8 °F 93% 30.07 in 7.0 mi SE 3.5 mph - N/A   Overcast
9:05 PM 26.6 °F 22.6 °F 24.8 °F 93% 30.07 in 7.0 mi SSE 3.5 mph - N/A   Overcast
9:25 PM 26.6 °F 20.0 °F 24.8 °F 93% 30.06 in 7.0 mi SSE 5.8 mph - N/A   Overcast
9:45 PM 26.6 °F 20.0 °F 26.6 °F 100% 30.06 in 7.0 mi SSE 5.8 mph - N/A   Overcast
10:05 PM 28.4 °F 22.2 °F 26.6 °F 93% 30.04 in 7.0 mi SSE 5.8 mph - N/A   Overcast
10:25 PM 28.4 °F 24.6 °F 26.6 °F 93% 30.04 in 7.0 mi SSE 3.5 mph - N/A   Overcast
10:45 PM 28.4 °F 23.3 °F 26.6 °F 93% 30.03 in 7.0 mi SE 4.6 mph - N/A   Overcast
11:05 PM 28.4 °F 23.3 °F 26.6 °F 93% 30.03 in 7.0 mi SSE 4.6 mph - N/A   Overcast
11:25 PM 28.4 °F 23.3 °F 26.6 °F 93% 30.03 in 7.0 mi SSE 4.6 mph - N/A   Overcast
11:45 PM 28.4 °F 23.3 °F 26.6 °F 93% 30.02 in 7.0 mi SSE 4.6 mph - N/A   Overcast